Temp
27 25 23 22 22 22 22 22 22 22 23 21 22 22 22 23 21 21 21 21 21 21 20 20 20 20 20 19 20 20 20 20 20 20 22 20 20 20 19 19 19 19 20
26 24 23 22 22 20 21 21 22 22 22 22 21 21 22 21 20 20 21 21 21 21 20 20 20 21 19 19 20 20 19 20 19 20 20 20 20 20 20 19 19 19 19
25 24 23 22 22 21 20 20 21 21 21 21 20 20 21 20 20 19 20 19 19 19 19 19 19 19 19 19 20 20 19 19 18 18 18 19 20 20 20 20 19 19 19
24 23 22 21 20 18 18 18 19 19 19 19 19 19 19 19 18 19 19 18 19 18 18 18 18 17 17 17 17 18 18 18 18 18 18 19 20 20 20 20 20 19 19
23 21 19 20 17 16 18 17 17 18 19 19 17 17 18 18 18 18 18 18 18 18 18 17 17 17 18 17 17 17 18 18 18 18 18 19 19 19 20 19 19 19 19
23 19 18 18 18 15 18 18 17 16 16 16 18 16 17 17 17 18 17 17 18 18 18 18 18 18 17 17 17 17 17 17 16 16 17 17 18 18 19 19 19 19 19
19 17 16 16 17 17 19 19 18 16 16 15 16 16 16 17 16 17 17 17 18 18 18 18 17 17 17 18 17 16 17 16 15 15 15 16 16 16 16 17 17 17 17
17 16 17 17 17 17 17 17 17 17 15 16 16 15 15 15 16 16 16 16 17 17 16 16 16 17 16 18 19 17 17 16 16 15 15 15 15 15 15 16 16 16 16
16 16 15 15 16 16 16 16 16 16 17 16 15 14 14 14 15 16 16 15 15 15 15 15 14 14 15 16 19 14 15 16 16 16 15 15 16 16 15 15 16 16 16
16 15 15 15 15 14 15 15 15 14 14 14 14 14 14 14 14 14 14 15 14 13 14 14 14 14 15 17 14 13 14 15 15 15 16 16 16 17 16 16 16 15 16
15 14 15 15 16 15 15 16 16 15 14 13 14 14 14 13 13 13 13 14 14 14 14 13 13 13 13 13 13 13 13 13 14 13 14 15 15 15 15 16 16 17 16
14 14 15 14 14 15 15 15 15 15 14 14 14 14 14 13 13 13 12 12 12 12 11 11 11 12 12 13 13 13 13 13 13 13 14 14 14 15 15 16 16 16 16
13 13 14 15 15 15 15 14 13 14 14 14 14 14 14 14 13 13 12 11 11 11 10 11 11 12 13 14 13 13 13 13 13 13 14 14 15 15 15 15 16 16 16
13 13 14 14 14 14 13 13 14 14 14 14 14 14 14 13 13 11 11 10 11 11 11 11 11 12 11 12 12 12 12 11 11 11 11 13 14 14 14 15 15 16 16
14 14 14 14 14 13 13 13 13 13 13 12 13 13 12 12 12 11 11 11 11 10 10 10 11 11 11 12 12 12 12 12 11 11 10 10 11 11 13 14 14 14 14
14 14 14 14 14 14 13 14 13 13 13 12 12 12 12 11 11 11 10 10 10 9 10 10 10 11 11 12 11 11 10 9 9 9 9 9 9 9 10 11 12 12 13
13 13 14 14 14 14 13 13 13 13 13 13 13 12 11 10 10 10 10 10 10 10 10 10 10 11 9 9 10 10 10 9 9 8 7 8 8 9 9 10 10 11 11
13 13 13 14 14 14 13 13 13 14 14 13 12 11 11 11 11 10 10 10 10 10 10 10 10 9 9 8 7 7 8 7 7 7 7 7 8 8 7 8 8 9 10
12 13 13 13 13 13 13 13 12 12 12 12 12 12 11 11 11 11 11 10 10 10 10 9 8 8 7 7 6 6 6 5 6 6 6 6 6 6 7 7 8 8 8
12 13 13 13 13 13 13 12 12 12 11 11 12 11 11 11 11 10 11 10 11 10 9 8 7 6 6 5 5 5 5 5 5 5 5 5 5 5 6 6 6 7 7
13 13 13 13 13 13 13 12 12 11 11 11 11 11 11 10 10 10 11 10 10 9 8 7 6 5 5 5 5 4 4 4 4 4 4 4 4 4 5 5 5 6 6
13 13 13 13 12 13 12 12 11 11 11 10 10 10 10 10 10 10 10 10 9 8 8 7 6 5 4 5 4 4 4 4 4 4 3 3 4 4 4 5 5 5 5
13 13 13 13 12 12 11 11 10 10 10 10 10 10 10 10 11 11 10 10 9 9 6 6 5 5 5 4 4 4 3 3 3 3 3 3 4 4 4 4 5 5 5
12 12 12 12 11 11 10 11 10 10 10 10 9 9 10 10 10 10 10 9 8 7 6 5 5 5 5 5 4 4 4 4 3 3 3 3 4 4 4 4 4 5 5
12 12 12 12 11 11 11 10 10 10 10 10 10 10 10 10 10 10 10 9 8 7 7 6 6 6 5 5 5 5 5 4 4 4 4 4 4 4 4 4 4 4 3
11 11 11 11 11 11 10 10 10 10 10 10 10 9 9 10 9 9 9 9 8 7 7 7 6 6 6 6 5 5 5 5 4 4 4 4 4 4 4 4 3 3 3
Height
1494 1497 1501 1504 1507 1511 1516 1516 1517 1520 1523 1525 1523 1524 1526 1528 1529 1528 1524 1521 1520 1524 1529 1532 1533 1528 1529 1534 1535 1538 1533 1528 1530 1539 1539 1542 1539 1539 1536 1538 1537 1536 1533
1486 1492 1497 1501 1507 1511 1511 1511 1514 1516 1517 1519 1520 1522 1523 1523 1524 1523 1521 1521 1520 1522 1526 1528 1528 1526 1523 1526 1528 1524 1519 1520 1527 1530 1534 1537 1538 1535 1531 1531 1532 1530 1529
1484 1491 1497 1501 1495 1509 1508 1512 1510 1513 1515 1516 1517 1519 1522 1522 1522 1522 1520 1521 1523 1522 1524 1523 1525 1525 1529 1527 1521 1515 1518 1521 1523 1523 1527 1532 1530 1528 1528 1527 1526 1525 1526
1481 1487 1494 1502 1506 1501 1500 1501 1505 1506 1507 1509 1513 1512 1514 1515 1516 1517 1518 1520 1521 1520 1520 1522 1523 1525 1526 1525 1522 1519 1517 1517 1520 1520 1519 1519 1519 1521 1520 1520 1520 1523 1522
1482 1485 1497 1498 1502 1489 1497 1495 1502 1504 1500 1504 1512 1514 1513 1510 1512 1514 1516 1518 1519 1519 1517 1519 1520 1519 1520 1519 1519 1519 1517 1515 1515 1517 1516 1515 1516 1517 1517 1518 1518 1517 1517
1481 1487 1493 1493 1488 1486 1493 1499 1498 1500 1501 1505 1505 1513 1513 1511 1513 1514 1516 1518 1518 1518 1517 1516 1515 1517 1514 1514 1515 1515 1515 1514 1512 1509 1507 1508 1509 1512 1512 1512 1510 1508 1506
1482 1487 1492 1491 1491 1496 1496 1493 1496 1496 1499 1501 1510 1512 1511 1507 1512 1513 1514 1515 1516 1516 1516 1515 1514 1515 1510 1506 1506 1509 1509 1510 1511 1511 1510 1508 1507 1508 1507 1505 1505 1504 1503
1484 1488 1492 1495 1497 1498 1498 1498 1499 1497 1499 1498 1503 1504 1507 1508 1509 1510 1511 1511 1512 1511 1512 1511 1512 1511 1511 1506 1505 1507 1507 1507 1509 1509 1507 1504 1503 1503 1504 1503 1501 1501 1499
1486 1488 1489 1491 1492 1493 1493 1495 1495 1496 1496 1497 1501 1504 1506 1507 1508 1508 1508 1509 1509 1507 1507 1507 1508 1509 1508 1503 1497 1504 1502 1502 1503 1502 1500 1498 1498 1498 1498 1497 1495 1495 1490
1484 1487 1489 1490 1490 1491 1492 1493 1494 1494 1496 1499 1502 1505 1506 1505 1506 1506 1506 1505 1506 1506 1505 1506 1506 1505 1499 1493 1499 1500 1497 1496 1495 1494 1494 1492 1491 1489 1489 1489 1489 1488 1487
1485 1487 1489 1492 1493 1494 1495 1493 1495 1496 1498 1500 1503 1504 1502 1503 1503 1505 1504 1502 1502 1502 1502 1503 1500 1498 1498 1498 1496 1495 1492 1490 1489 1488 1486 1484 1482 1481 1480 1482 1482 1482 1479
1485 1486 1488 1491 1494 1494 1495 1495 1496 1497 1498 1499 1500 1500 1500 1502 1503 1501 1500 1500 1500 1499 1499 1498 1497 1496 1495 1494 1491 1489 1487 1487 1486 1483 1480 1478 1476 1478 1478 1476 1475 1474 1473
1489 1489 1489 1491 1493 1493 1494 1496 1498 1499 1498 1499 1500 1500 1501 1501 1500 1499 1500 1499 1499 1499 1496 1495 1494 1492 1489 1487 1485 1484 1484 1482 1481 1479 1477 1474 1473 1474 1473 1472 1471 1469 1468
1489 1491 1491 1492 1493 1494 1495 1498 1500 1499 1497 1497 1498 1498 1500 1499 1497 1497 1498 1498 1497 1495 1492 1491 1488 1487 1484 1483 1482 1481 1478 1479 1478 1475 1472 1469 1467 1466 1467 1467 1465 1464 1461
1491 1492 1494 1493 1494 1495 1496 1498 1498 1498 1498 1498 1498 1498 1498 1498 1496 1496 1496 1495 1493 1492 1490 1487 1484 1482 1481 1481 1480 1479 1477 1474 1471 1468 1464 1463 1462 1461 1460 1459 1458 1457 1455
1493 1495 1494 1494 1495 1496 1497 1498 1498 1498 1497 1496 1496 1495 1495 1495 1494 1494 1494 1494 1492 1489 1488 1485 1483 1482 1481 1477 1476 1474 1473 1469 1466 1463 1462 1461 1459 1457 1455 1454 1452 1452 1450
1495 1494 1494 1494 1495 1496 1497 1498 1498 1497 1496 1495 1494 1494 1494 1493 1493 1493 1492 1490 1489 1488 1486 1483 1481 1479 1476 1475 1472 1470 1467 1465 1463 1463 1461 1459 1456 1453 1451 1448 1447 1445 1442
1492 1493 1494 1495 1496 1496 1496 1497 1498 1497 1496 1494 1493 1493 1493 1492 1492 1491 1489 1487 1486 1485 1483 1481 1478 1476 1472 1469 1467 1465 1463 1462 1460 1458 1457 1454 1452 1449 1446 1443 1442 1440 1438
1492 1494 1494 1495 1495 1494 1495 1496 1497 1496 1495 1494 1493 1492 1491 1489 1489 1488 1486 1484 1482 1481 1480 1476 1474 1472 1468 1466 1464 1461 1459 1457 1456 1451 1449 1447 1445 1442 1440 1438 1436 1435 1434
1492 1493 1493 1494 1494 1494 1493 1493 1493 1493 1493 1492 1491 1490 1489 1488 1486 1484 1483 1482 1480 1478 1474 1472 1469 1467 1464 1461 1458 1455 1453 1451 1448 1445 1442 1440 1437 1435 1434 1433 1431 1429 1427
1491 1490 1490 1490 1491 1491 1491 1490 1490 1490 1488 1487 1487 1487 1486 1484 1482 1480 1481 1478 1476 1473 1470 1466 1463 1460 1458 1454 1452 1450 1447 1444 1442 1439 1435 1433 1430 1427 1427 1425 1423 1422 1420
1491 1490 1488 1487 1486 1487 1488 1487 1486 1485 1484 1483 1483 1483 1482 1480 1478 1478 1476 1475 1472 1469 1466 1462 1458 1455 1452 1450 1447 1444 1442 1439 1437 1434 1430 1428 1425 1423 1420 1418 1416 1413 1412
1491 1489 1488 1485 1485 1484 1484 1483 1482 1481 1479 1478 1478 1478 1476 1475 1475 1474 1473 1470 1466 1464 1462 1458 1454 1452 1449 1445 1442 1439 1437 1434 1432 1429 1426 1424 1420 1418 1416 1413 1410 1407 1406
1487 1485 1485 1484 1482 1480 1480 1480 1476 1475 1474 1474 1474 1473 1473 1472 1471 1470 1468 1464 1461 1459 1457 1454 1451 1448 1445 1442 1439 1435 1433 1430 1428 1425 1423 1420 1417 1414 1411 1409 1406 1403 1400
1484 1483 1482 1481 1479 1478 1477 1476 1474 1472 1470 1470 1470 1468 1469 1468 1466 1465 1463 1460 1459 1456 1454 1450 1447 1446 1444 1441 1438 1434 1431 1428 1425 1423 1420 1417 1413 1410 1408 1405 1401 1396 1393
1482 1481 1480 1478 1478 1477 1476 1474 1472 1471 1471 1469 1468 1467 1466 1464 1462 1460 1458 1457 1456 1452 1450 1447 1444 1442 1439 1437 1434 1431 1428 1425 1422 1420 1416 1412 1409 1406 1402 1398 1394 1390 1385
Wind_Speed
33 28 27 28 32 27 29 29 25 23 26 16 19 20 17 19 16 23 18 16 15 15 11 12 8 14 16 13 12 12 6 5 10 13 17 11 15 16 16 16 19 23 21
34 26 23 22 19 25 31 28 31 30 29 25 21 24 23 18 17 17 17 17 19 17 13 11 9 10 19 15 15 10 13 12 17 20 16 11 9 12 14 16 19 19 17
26 24 21 21 15 25 26 23 23 22 24 25 24 22 18 18 19 16 15 13 14 10 12 11 9 8 13 13 13 13 14 13 12 13 15 13 10 13 13 12 17 16 16
21 20 19 11 19 46 31 21 17 18 16 17 15 14 17 15 14 13 11 9 11 8 7 7 4 5 7 8 8 10 14 13 12 14 17 17 14 10 15 15 13 14 16
17 11 12 12 17 13 12 2 6 12 13 12 8 13 10 9 10 10 7 5 6 8 8 9 5 11 9 11 14 16 14 17 20 20 19 19 16 14 14 12 14 14 19
10 10 10 12 11 18 13 10 21 7 5 7 10 15 7 10 7 6 6 8 9 9 10 13 13 7 8 6 8 15 16 14 13 16 18 18 19 21 23 26 27 26 28
13 13 15 15 14 13 8 7 8 9 9 5 5 8 12 18 16 15 13 13 12 12 12 10 8 8 15 13 14 19 17 14 13 15 18 17 19 20 19 19 19 20 23
14 11 3 5 8 7 6 7 6 7 6 7 8 6 9 15 13 15 17 17 17 15 13 13 16 14 16 13 15 19 19 18 16 15 17 22 21 20 19 20 24 27 29
8 8 4 3 4 3 2 1 0 1 4 5 8 9 10 11 15 13 12 11 9 10 10 14 13 13 15 13 17 20 20 22 20 18 21 26 27 27 28 27 28 24 25
8 6 8 6 2 1 0 3 3 2 4 5 7 9 11 11 13 13 12 11 10 9 9 9 10 11 15 19 18 22 26 26 26 27 25 24 23 23 22 25 25 27 26
11 8 8 8 4 3 2 2 2 1 2 4 6 8 9 9 11 12 12 10 13 14 12 7 11 13 15 18 22 27 29 27 27 27 27 24 19 15 15 18 23 29 31
13 10 12 13 7 2 1 1 2 2 2 3 7 8 7 7 10 12 14 14 16 15 8 7 14 20 23 24 25 25 21 18 22 23 21 18 15 15 16 17 21 18 18
11 9 7 5 2 1 4 7 7 8 8 5 4 5 5 8 8 11 9 11 12 15 18 17 19 23 24 22 15 10 12 16 19 23 22 22 18 21 22 20 21 20 22
7 4 4 6 6 10 9 3 2 1 3 3 2 2 2 6 4 4 8 10 15 18 21 23 24 23 14 14 13 16 8 9 14 15 16 17 17 14 16 21 22 21 23
3 5 8 4 7 5 6 2 6 6 11 10 3 6 6 6 10 13 17 19 17 19 22 21 21 15 16 16 13 17 22 25 26 24 22 23 22 21 22 21 19 17 15
7 5 2 6 4 3 5 7 8 9 9 10 9 12 10 10 10 12 13 14 17 19 17 20 15 18 17 13 15 17 15 15 19 29 30 28 22 23 25 28 29 27 26
4 4 4 6 2 3 5 5 7 10 11 11 9 5 7 8 9 14 14 15 18 15 18 16 16 17 21 20 22 25 28 30 26 22 24 23 26 28 24 26 25 29 29
2 3 3 2 3 4 2 7 7 8 10 12 7 9 15 16 19 18 16 19 22 13 19 19 21 23 25 26 19 19 21 24 26 24 28 30 29 29 28 24 20 19 30
3 2 1 3 5 6 8 6 9 10 13 14 15 17 19 18 17 19 19 21 16 15 20 18 18 21 22 24 21 23 23 25 28 27 26 22 23 24 26 26 26 29 27
2 2 5 4 3 5 12 11 9 12 12 14 15 14 14 16 21 20 19 10 22 17 21 23 25 27 23 21 20 26 28 28 27 26 25 25 25 25 25 23 20 25 28
8 11 6 9 11 13 14 13 12 16 18 17 15 16 18 17 21 15 17 17 14 17 20 24 27 23 26 24 27 28 26 26 24 24 23 23 22 23 23 25 28 32 34
8 9 12 16 17 16 16 14 16 16 20 15 18 17 19 21 16 10 13 10 12 20 29 24 23 22 23 23 23 24 22 21 19 21 21 21 21 20 20 20 21 21 23
9 11 14 9 8 8 7 9 13 16 17 17 14 12 20 13 10 11 11 14 18 25 23 21 18 19 20 19 19 19 19 18 19 20 22 21 20 20 19 20 22 23 24
12 7 10 12 14 18 14 12 16 19 15 19 12 13 11 15 12 12 14 14 19 23 24 20 18 17 17 17 17 17 17 17 17 19 19 20 20 20 22 23 25 26 27
10 11 11 10 10 10 10 9 11 13 13 8 7 9 7 8 14 16 13 16 16 19 23 18 18 18 21 19 17 21 21 18 17 18 20 22 22 21 22 29 30 29 29
6 8 9 9 7 8 8 7 10 9 8 9 11 8 12 15 15 13 12 13 13 17 19 18 16 23 25 24 21 25 26 21 20 21 23 23 24 24 25 31 32 35 33
Wind_Direction
225 234 234 235 236 236 215 224 232 233 223 246 253 247 252 237 246 253 256 251 267 271 270 267 282 290 289 295 251 241 258 299 291 269 265 290 298 304 281 263 262 272 284
215 210 224 226 245 247 218 222 227 229 225 233 243 260 269 257 250 256 267 263 258 258 258 260 266 290 281 272 284 294 305 294 281 286 300 316 290 294 292 278 266 268 284
188 194 196 220 233 245 237 222 228 233 236 241 248 252 256 260 261 261 252 258 265 264 259 257 235 228 258 279 294 296 285 285 278 283 284 293 294 308 308 289 273 268 268
187 194 209 231 253 264 261 215 219 219 233 240 255 252 243 251 253 260 261 260 260 266 273 287 282 259 249 288 296 287 303 304 308 304 307 314 311 307 300 305 297 280 293
196 205 147 70 4 355 226 97 273 229 222 230 247 263 233 226 232 236 252 246 258 265 263 257 247 260 275 275 279 293 288 283 284 281 279 283 280 282 277 284 291 286 278
212 180 166 148 57 231 255 265 251 234 197 343 328 294 281 248 287 262 270 271 273 287 300 301 300 325 289 291 295 293 298 305 307 308 308 304 298 283 273 275 277 277 280
182 185 165 159 186 193 225 239 273 248 274 314 276 269 265 273 271 273 260 274 273 287 285 292 301 261 267 271 286 283 293 295 289 296 297 302 304 307 303 295 286 282 275
164 167 215 203 210 214 229 247 271 304 297 283 290 290 259 269 270 269 274 277 278 266 275 293 287 278 278 278 283 279 286 289 280 270 278 286 284 281 276 274 277 278 274
122 101 79 85 128 153 172 228 61 344 300 269 257 253 267 276 282 278 274 276 275 278 291 278 278 288 293 295 292 290 293 295 299 283 255 259 266 267 268 270 270 280 282
140 150 123 128 150 104 229 321 325 269 257 290 265 266 260 269 278 290 287 284 282 299 298 299 297 288 289 300 290 290 295 304 304 298 294 288 285 279 272 263 264 266 269
133 135 126 106 99 117 101 60 58 138 232 269 263 287 293 295 297 316 305 303 296 293 292 295 302 300 282 278 285 290 297 305 304 302 306 305 308 305 296 289 285 276 265
133 124 122 122 124 86 73 325 292 316 285 317 348 8 356 281 315 320 325 337 342 339 333 289 267 272 280 286 289 295 296 296 300 306 306 306 301 290 290 279 290 282 275
138 135 124 130 149 58 60 49 41 7 20 8 329 319 309 319 295 299 319 344 346 337 316 314 310 309 308 304 305 324 319 312 314 312 312 313 310 296 286 281 272 276 287
127 117 106 85 71 74 90 46 70 220 232 237 258 319 316 346 253 245 272 286 304 304 302 306 314 316 332 342 332 326 333 314 300 328 335 306 286 293 305 293 288 287 281
112 90 87 51 57 38 48 1 358 346 4 6 323 283 256 269 284 298 305 313 319 323 318 322 327 344 331 326 309 306 301 302 296 294 308 306 302 312 295 289 285 299 307
65 81 145 97 46 9 17 341 339 336 343 355 5 16 17 10 3 357 350 342 343 331 331 333 339 328 319 312 308 316 329 333 326 319 312 304 308 311 306 297 289 303 295
130 100 18 72 15 352 343 336 331 328 325 326 321 347 6 354 343 340 334 328 336 330 327 334 323 323 342 334 312 302 306 305 306 316 311 311 315 297 300 293 293 291 291
102 80 119 12 333 322 306 342 317 318 323 337 356 341 337 333 330 328 322 319 324 335 330 321 317 323 316 318 322 307 302 304 304 301 295 300 305 302 298 303 303 304 285
105 336 86 330 307 306 306 289 315 308 322 317 312 315 316 315 320 324 325 323 322 324 320 318 315 302 309 306 303 303 306 305 308 312 314 302 298 295 299 303 296 293 295
152 188 245 300 311 284 292 290 284 290 287 298 299 301 296 301 310 307 315 308 317 304 298 310 308 305 303 306 306 304 307 312 313 310 310 304 294 292 291 289 301 300 291
287 284 275 270 261 274 274 269 269 276 290 283 276 301 300 299 304 287 305 314 317 304 308 304 310 307 311 308 304 309 309 312 316 315 311 312 307 302 296 293 285 283 288
312 313 307 292 275 276 279 282 278 278 285 280 295 294 306 292 284 294 299 301 307 310 314 318 321 318 314 314 311 308 308 311 316 317 316 316 316 313 312 309 307 304 300
304 307 309 317 338 334 316 297 292 287 291 300 292 270 284 303 304 300 302 307 303 305 311 324 327 326 323 320 319 316 312 310 314 315 317 321 324 325 327 324 324 319 315
309 324 324 320 318 318 301 298 300 305 290 289 287 287 301 299 296 288 308 302 311 310 323 313 328 342 346 344 335 332 332 329 322 323 324 330 334 337 338 335 329 322 316
338 326 319 318 327 326 321 301 308 325 337 283 273 317 286 282 285 301 296 306 301 295 326 341 339 347 348 343 353 356 350 342 334 329 328 332 332 329 329 327 325 322 315
317 331 317 311 323 328 320 309 326 320 304 303 299 290 285 294 302 290 290 294 288 300 315 325 323 315 330 340 339 339 339 335 330 323 317 318 324 323 329 340 336 327 320